{"data":{"norad_id":58794,"epoch":"2026-09-20T22:38:14.004960Z","epoch_age_seconds":114296,"freshness":"FRESH","line1":"1 58794U 24012H   26263.94321765  .00000586  00000+0  30826-4 0  9999","line2":"2 58794  43.0015 142.8810 0001419 268.5593  91.5096 15.27579757151096","mean_motion":15.27579757,"eccentricity":0.0001419,"inclination_deg":43.0015,"raan_deg":142.881,"arg_perigee_deg":268.5593,"mean_anomaly_deg":91.5096,"bstar":3.0826e-5,"rev_number":15109,"period_min":94.26676370915,"perigee_km":482.07622125889,"apogee_km":484.02342607945,"semimajor_km":6861.1868236692,"source":"CELESTRAK","updated_at":"2026-09-21T09:00:33.979958Z"}}